Weather History for Guatemala Aeropuertola Aurora, Guatemala

Change the Weather History Date:

Saturday, October 12, 2013

  Actual Average Record
Temperature  
Mean Temperature 70 °F -  
Max Temperature 77 °F 72 °F - ()
Min Temperature 62 °F 58 °F - ()
Cooling Degree Days 4    
Growing Degree Days 20 (Base 50)    
Moisture  
Dew Point 63 °F    
Average Humidity 85    
Maximum Humidity 100    
Minimum Humidity 49    
Precipitation  
Precipitation 0.00 in - - ()
Sea Level Pressure  
Sea Level Pressure 30.22 in    
Wind  
Wind Speed 7 mph ()    
Max Wind Speed 12 mph    
Max Gust Speed -    
Visibility 5.8 miles    
Events Rain , Thunderstorm    
T = Trace of Precipitation, MM = Missing Value Source: Averaged Metar Reports

Daily Weather History Graph

Daily Weather History Graph

Search for Another Location

Airport:

Trip Planner

Search our weather history database for the weather conditions in past years. The results will help you decide how hot, cold, wet, or windy it might be!

Date:

Astronomy

Oct. 12, 2013 Rise Set
Actual Time 5:52 AM CST 5:43 PM CST
Civil Twilight 5:31 AM CST 6:05 PM CST
Nautical Twilight 5:06 AM CST 6:30 PM CST
Astronomical Twilight 4:41 AM CST 6:55 PM CST
Moon 12:59 PM CST (10/12) No Moon Set
Length of Visible Light 12h 33m
Length of Day
11h 50m
First Quarter, 59% of the Moon is Illuminated
Oct 12
First Quarter
Oct 18
Full
Oct 26
Last Quarter
Nov 3
New
Nov 9
First Quarter

Hourly Weather History & Observations

Time (CST) Temp. Dew Point Humidity Pressure Visibility Wind Dir Wind Speed Gust Speed Precip Events Conditions
12:00 AM 66.2 °F 64.4 °F 94% 30.27 in 6.2 mi North 6.9 mph - N/A   Mostly Cloudy
1:00 AM 64.4 °F 62.6 °F 94% 30.24 in 6.2 mi North 6.9 mph - N/A   Overcast
2:00 AM 64.4 °F 62.6 °F 94% 30.24 in 6.2 mi North 6.9 mph - N/A   Overcast
3:00 AM 64.4 °F 62.6 °F 94% 30.24 in 6.2 mi North 6.9 mph - N/A   Overcast
4:00 AM 64.4 °F 62.6 °F 94% 30.24 in 6.2 mi NNW 6.9 mph - N/A   Overcast
5:00 AM 64.4 °F 60.8 °F 88% 30.24 in 6.2 mi North 9.2 mph - N/A   Scattered Clouds
6:00 AM 63 °F 62 °F 94% 29.93 in 25 mi NNE 11.5 mph - -   Overcast
6:00 AM 62.6 °F 62.6 °F 100% 30.24 in 6.2 mi NNE 11.5 mph - N/A   Scattered Clouds
7:00 AM 64.4 °F 62.6 °F 94% 30.27 in 6.2 mi North 6.9 mph - N/A   Scattered Clouds
8:00 AM 68.0 °F 60.8 °F 78% 30.27 in 6.2 mi NNE 6.9 mph - N/A   Partly Cloudy
9:00 AM 69.8 °F 59.0 °F 68% 30.27 in 6.2 mi NNE 11.5 mph - N/A   Partly Cloudy
10:00 AM 73.4 °F 59.0 °F 61% 30.27 in 6.2 mi North 11.5 mph - N/A   Partly Cloudy
11:00 AM 75.2 °F 64.4 °F 69% 30.27 in 6.2 mi NNE 6.9 mph - N/A   Scattered Clouds
12:00 PM 77 °F 61 °F 49% 29.88 in 25 mi NNE 11.5 mph - -   Mostly Cloudy
12:00 PM 77.0 °F 60.8 °F 57% 30.24 in 6.2 mi NNE 11.5 mph - N/A   Partly Cloudy
12:22 PM - - N/A% - 6.2 mi NE 9.2 mph - N/A   Scattered Clouds
1:00 PM 75.2 °F 60.8 °F 61% 30.21 in 6.2 mi NE 9.2 mph - N/A Thunderstorm Thunderstorm
1:05 PM - - N/A% - 6.2 mi South 9.2 mph - N/A Thunderstorm Thunderstorm
1:42 PM - - N/A% - 5.0 mi South 11.5 mph - N/A Rain Rain
2:00 PM 68.0 °F 64.4 °F 88% 30.21 in 6.2 mi South 6.9 mph - N/A Rain Light Rain
3:00 PM 66.2 °F 64.4 °F 94% 30.18 in 5.0 mi South 6.9 mph - N/A   Partly Cloudy
3:22 PM - - N/A% - 1.2 mi South 4.6 mph - N/A Rain , Thunderstorm Heavy Thunderstorms and Rain
4:00 PM 66.2 °F 64.4 °F 94% 30.18 in 4.3 mi Calm Calm - N/A   Light Drizzle
4:10 PM - - N/A% - 4.3 mi Calm Calm - N/A   Partly Cloudy
5:00 PM 68.0 °F 64.4 °F 88% 30.18 in 6.2 mi Calm Calm - N/A   Scattered Clouds
6:00 PM 68.0 °F 64.4 °F 88% 30.24 in 6.2 mi Calm Calm - N/A   Mostly Cloudy
7:00 PM 66.2 °F 64.4 °F 94% 30.24 in 6.2 mi NNW 5.8 mph - N/A   Mostly Cloudy
8:00 PM 66.2 °F 64.4 °F 94% 30.27 in 6.2 mi Calm Calm - N/A   Scattered Clouds
8:40 PM - - N/A% - 6.2 mi North 6.9 mph - N/A   Scattered Clouds
9:00 PM 66.2 °F 64.4 °F 94% 30.30 in 6.2 mi North 5.8 mph - N/A   Scattered Clouds
10:00 PM 66.2 °F 64.4 °F 94% 30.30 in 6.2 mi North 6.9 mph - N/A   Mostly Cloudy
11:00 PM 66.2 °F 64.4 °F 94% 30.30 in 6.2 mi North 6.9 mph - N/A   Scattered Clouds